Regional Weather Roundup
Issued by NWS

Home | Current Version | Previous Version | Text Only | Print | Product List | Glossary Off
Versions: 1 2 3 4 5 6 7 8 9 10 11 12 13 14 15 16 17 18 19 20 21 22 23 24 25 26 27 28 29 30 31 32 33 34 35 36 37 38 39 40 41 42 43 44 45 46 47 48 49 50

000
ASUS43 KOAX 180910
RWRNE

WEATHER ROUNDUP FOR NEBRASKA
NATIONAL WEATHER SERVICE OMAHA NE
300 AM CST WED JAN 18 2017

NOTES: SATELLITE DATA IS BEING USED TO AUGMENT CLOUD COVER ABOVE
       12000 FEET.
       "FAIR" INDICATES FEW OR NO CLOUDS BELOW 12,000 FEET WITH NO
       SIGNIFICANT WEATHER AND/OR OBSTRUCTIONS TO VISIBILITY.

  * THESE STATIONS DO NOT REPORT WEATHER SUCH AS RAIN...SNOW OR FOG.

NEZ001>004-019>022-054>056-181000-
NEBRASKA PANHANDLE

CITY           SKY/WX    TMP DP  RH WIND       PRES   REMARKS
SCOTTSBLUFF    CLOUDY    24  15  68 N8        29.96S WCI  15
ALLIANCE       CLOUDY    15  10  80 W6        29.94R WCI   6
CHADRON        CLOUDY    20  13  74 W8        29.94R WCI  10
KIMBALL        CLOUDY    26  20  80 W9        29.98R WCI  16
SIDNEY         CLOUDY    23  19  85 W9        29.97F WCI  13
$$

NEZ057>060-069>072-079>082-181000-
SOUTHWEST NEBRASKA

CITY           SKY/WX    TMP DP  RH WIND       PRES   REMARKS
NORTH PLATTE   CLOUDY    22  21  96 CALM      29.99F
IMPERIAL       CLOUDY    27  23  85 SW6       30.00S WCI  20
LEXINGTON      CLOUDY    32  27  83 W6        30.02S WCI  26
MCCOOK         CLOUDY    27  26  96 SW6       30.04S WCI  20
OGALLALA       CLOUDY    21  19  93 W6        29.97F WCI  14
$$

NEZ005>010-023>029-035>040-094-181000-
NORTH CENTRAL NEBRASKA

CITY           SKY/WX    TMP DP  RH WIND       PRES   REMARKS
VALENTINE      CLOUDY    23  17  78 W9        29.91R WCI  13
AINSWORTH      CLOUDY    30  26  84 SW7       29.91R WCI  24
BROKEN BOW     CLOUDY    30  27  88 CALM      29.97F
O`NEILL        CLOUDY    33  29  87 SW9       29.93F WCI  25
ORD            CLOUDY    30  24  78 SW7       29.98F WCI  23
THEDFORD       CLOUDY    31  27  86 SW13      29.96R WCI  21
$$

NEZ041-046>049-061>064-073>077-083>087-181000-
SOUTH CENTRAL NEBRASKA

CITY           SKY/WX    TMP DP  RH WIND       PRES   REMARKS
GRAND ISLAND   CLOUDY    33  29  85 SW13      30.03S WCI  24
AURORA         CLOUDY    32  29  88 SW9       30.04S WCI  24
HASTINGS       CLOUDY    32  26  78 SW6       30.05S WCI  26
HEBRON         CLOUDY    31  28  88 SW6       30.09S WCI  26
HOLDREGE       CLOUDY    33  28  81 SW8       30.04S WCI  26
KEARNEY *      CLOUDY    32  25  74 SW8       30.03S WCI  25
YORK           CLOUDY    32  28  86 SW8       30.05S WCI  25
$$

NEZ011>018-030>034-042>045-181000-
NORTHEAST NEBRASKA

CITY           SKY/WX    TMP DP  RH WIND       PRES   REMARKS
NORFOLK        CLOUDY    32  27  81 SW15      29.99F WCI  22
ALBION         CLOUDY    32  27  81 CALM      30.01F
BLAIR          CLEAR     31  29  92 S3        30.06F
FREMONT        CLOUDY    31  30  96 CALM      30.06F
TEKAMAH        CLOUDY    30  28  92 S8        30.06F WCI  22
WAYNE          CLOUDY    31  28  91 SW10      30.00S WCI  22
$$

NEZ050>053-065>068-078-088>093-181000-
SOUTHEAST NEBRASKA

CITY           SKY/WX    TMP DP  RH WIND       PRES   REMARKS
LINCOLN        CLOUDY    27  25  92 S6        30.09F WCI  20
OMAHA EPPLEY   CLEAR     27  22  81 E6        30.08F WCI  20
BEATRICE       CLOUDY    28  26  92 S6        30.09F WCI  22
FALLS CITY     CLOUDY    26  24  92 S8        30.12F WCI  18
NEBRASKA CITY  CLOUDY    27  27 100 S6        30.10S WCI  21
PLATTSMOUTH    CLOUDY    29  25  83 S7        30.09S WCI  22
$$

NEZ044-045-051>053-067-181000-
OMAHA AREA

CITY           SKY/WX    TMP DP  RH WIND       PRES   REMARKS
OMAHA EPPLEY   CLEAR     27  22  81 E6        30.08F WCI  20
BLAIR          CLEAR     31  29  92 S3        30.06F
FREMONT        CLOUDY    31  30  96 CALM      30.06F
MILLARD        CLEAR     26  25  94 CALM      30.08F FOG
OFFUTT AFB     CLOUDY    22  22 100 E3        30.08F FOG
PLATTSMOUTH    CLOUDY    29  25  83 S7        30.09S WCI  22
WAHOO          FAIR      29  28  94 CALM      30.06F
$$



USA.gov is the U.S. government's official web portal to all federal, state and local government web resources and services.